Tracking 19794 objects as of 22-Jul-2019
HD Live streaming from Space Station
objects crossing your sky now

COSMOS 1506

Track COSMOS 1506 now!
10-day predictions
COSMOS 1506 is classified as:


NORAD ID: 14450
Int'l Code: 1983-108A
Perigee: 953.3 km
Apogee: 1,015.4 km
Inclination: 82.9 °
Period: 104.6 minutes
Semi major axis: 7355 km
RCS: 1.705 m2 (large)
Launch date: October 26, 1983
Source: Commonwealth of Independent States (former USSR) (CIS)
Launch site: PLESETSK MISSILE AND SPACE COMPLEX (PKMTR)
aabbcc
Your satellite tracking list
Your tracking list is empty




NASA's NSSDC Master Catalog

Two Line Element Set (TLE):
1 14450U 83108A   19202.88369980  .00000039  00000-0  24286-4 0  9997
2 14450  82.9317 347.6041 0042236 210.2868 261.5950 13.76251623610961
Source of the keplerian elements: AFSPC